DMSP 5D-2 F13 DEB, 42318

Orbit data source: Space-Track

DMSP 5D-2 F13 DEB, 42318 is space debris in SSO originally from a launch on Fri, 24 Mar 1995 UTC launched from the Air Force Western Test Range (AFWTR). Debris objects in space refer to the collection of defunct objects orbiting the Earth. Examples of debris include non-operational satellites, rocket bodies, and fragments generated from explosions, collisions, or faulty payload assembly.

Loading next visibility...
Identifier
42318, 1995-015JL
Orbit
SSO
Country
Flag of USUS
Related business
Manufacturer
Unknown
Mission
Spacecraft
Bus & Motor
Unknown
Mass
Unknown
Launch date (UTC)
1995-03-24 (31 years ago)
Launch vehicle
Unknown
Launch site
Air Force Western Test Range (AFWTR)
Object type
Payload
Rocket body
Debris
Shape & HBR
Unknown shape, 0.1 m
Radar Cross Section
Small (<0.1 m²)

Expand to show TLE details & history
Last TLE update: 2 days ago

TLE from 2 days ago
0 DMSP 5D-2 F13 DEB
1 42318U 95015JL  25349.12578280  .00003073  00000-0  23182-2 0  9995
2 42318  98.7427  42.5790 0206413 178.6602 181.5151 13.85317788518625
Epoch: 2025-12-15T03:01Z
TLE epoch observation values (Epoch: 2025-12-15T03:01:07.633Z)
Latitude
-0.00007°
Longitude
-86.73162°
Altitude
1,099.092 km
Speed
7.227 km/s
True Right ascension
02h 50m 18s
True Declination
0° 00' 00"
Sunlit
Object was in full shadow at epoch
Visualization orbit readout
Latitude
Unknown
Longitude
Unknown
Altitude
Unknown
Speed
Unknown
Apparent Right ascension
Unknown
Apparent Declination
Unknown
Sunlit
N/A
Visualization observer readout
Local Sidereal Time
00:26:30
Azimuth
Unknown
Elevation
Unknown
Doppler factor
Unknown
Orbital elements
Apogee altitude
1,093.394 km
Perigee altitude
791.187 km
Semi-major axis
7,320.428 km
Eccentricity
0.02064
Inclination
98.7427°
RAAN
42.579°
Arg. of periapsis
178.6602°
True anomaly
181.45413°
Mean anomaly
181.5151°
Eccentric anomaly
181.48446°
Mean motion
3.46528 °/min
Orbital period
103.89 mins
BSTAR
0.0023182
Loading maneuver chart data...
Computing Atmospheric mass density...

Documentation

Showing up to 5 results
|